Location: Narrabri
(30.3170°S, 149.7830°E)
Time: 03:10:31
(UTC+11:00)

Tiangong 2 - Pass Details

Date: 15 October 2017
Orbit: 388 x 392 km, 42.8° (Epoch: 20 October)

Event Time Altitude Azimuth Distance (km) Brightness Sun altitude
Rises 19:52:30 0° 229° (SW) 2,297 6.3 -9.6°
Reaches altitude 10° 19:54:46 10° 217° (SW) 1,436 4.8 -10.0°
Maximum altitude 19:57:39 29° 154° (SSE) 756 2.4 -10.6°
Enters shadow 19:59:44 15° 100° (E) 1,160 2.9 -11.1°
